����������;��������(kVARh)
2019-03-18 00:00;3,35
2019-03-18 00:15;3,55
2019-03-18 00:30;3,5
2019-03-18 00:45;5,4
2019-03-18 01:00;5,15
2019-03-18 01:15;5
2019-03-18 01:30;3,05
2019-03-18 01:45;2,95
2019-03-18 02:00;2,45
2019-03-18 02:15;2,75
2019-03-18 02:30;2,05
2019-03-18 02:45;1,2
2019-03-18 03:00;0,9
2019-03-18 03:15;2
2019-03-18 03:30;3
2019-03-18 03:45;3,1
2019-03-18 04:00;3,05
2019-03-18 04:15;2,65
2019-03-18 04:30;3,4
2019-03-18 04:45;2,2
2019-03-18 05:00;3
2019-03-18 05:15;1,9
2019-03-18 05:30;1,25
2019-03-18 05:45;1,25
2019-03-18 06:00;1,8
2019-03-18 06:15;1,25
2019-03-18 06:30;0,95
2019-03-18 06:45;0,4
2019-03-18 07:00;2,05
2019-03-18 07:15;2,45
2019-03-18 07:30;0,8
2019-03-18 07:45;9,1
2019-03-18 08:00;14,9
2019-03-18 08:15;35,05
2019-03-18 08:30;36,4
2019-03-18 08:45;42,25
2019-03-18 09:00;42,1
2019-03-18 09:15;39,7
2019-03-18 09:30;43,2
2019-03-18 09:45;42,8
2019-03-18 10:00;40,4
2019-03-18 10:15;45,2
2019-03-18 10:30;48,4
2019-03-18 10:45;48,25
2019-03-18 11:00;44,3
2019-03-18 11:15;45,95
2019-03-18 11:30;45,5
2019-03-18 11:45;46,3
2019-03-18 12:00;47,8
2019-03-18 12:15;48,7
2019-03-18 12:30;46,9
2019-03-18 12:45;43,4
2019-03-18 13:00;44,8
2019-03-18 13:15;46,05
2019-03-18 13:30;45,05
2019-03-18 13:45;47,9
2019-03-18 14:00;69,1
2019-03-18 14:15;51,5
2019-03-18 14:30;45,7
2019-03-18 14:45;48,1
2019-03-18 15:00;48,35
2019-03-18 15:15;46,1
2019-03-18 15:30;43,05
2019-03-18 15:45;42,1
2019-03-18 16:00;42
2019-03-18 16:15;38,75
2019-03-18 16:30;32,45
2019-03-18 16:45;33,65
2019-03-18 17:00;33,25
2019-03-18 17:15;31,4
2019-03-18 17:30;30,15
2019-03-18 17:45;29,6
2019-03-18 18:00;23,25
2019-03-18 18:15;23,7
2019-03-18 18:30;22,35
2019-03-18 18:45;24,55
2019-03-18 19:00;26,85
2019-03-18 19:15;27,25
2019-03-18 19:30;25,5
2019-03-18 19:45;26,35
2019-03-18 20:00;24,25
2019-03-18 20:15;23,2
2019-03-18 20:30;22,8
2019-03-18 20:45;23,3
2019-03-18 21:00;21,85
2019-03-18 21:15;20,5
2019-03-18 21:30;20,9
2019-03-18 21:45;16,65
2019-03-18 22:00;17,1
2019-03-18 22:15;19,25
2019-03-18 22:30;17,35
2019-03-18 22:45;15,05
2019-03-18 23:00;18,55
2019-03-18 23:15;16,6
2019-03-18 23:30;14,75
2019-03-18 23:45;14,75
2019-03-19 00:00;14,1
2019-03-19 00:15;15,85
2019-03-19 00:30;16,8
2019-03-19 00:45;15,55
2019-03-19 01:00;12,4
2019-03-19 01:15;12
2019-03-19 01:30;12,05
2019-03-19 01:45;12,25
2019-03-19 02:00;13,4
2019-03-19 02:15;14,35
2019-03-19 02:30;13,65
2019-03-19 02:45;13,7
2019-03-19 03:00;13,55
2019-03-19 03:15;14,25
2019-03-19 03:30;13,65
2019-03-19 03:45;14,4
2019-03-19 04:00;14,6
2019-03-19 04:15;15,2
2019-03-19 04:30;16,25
2019-03-19 04:45;16,1
2019-03-19 05:00;16,65
2019-03-19 05:15;16,05
2019-03-19 05:30;16,25
2019-03-19 05:45;14,35
2019-03-19 06:00;13,8
2019-03-19 06:15;13,7
2019-03-19 06:30;13,3
2019-03-19 06:45;12,5
2019-03-19 07:00;12,95
2019-03-19 07:15;14,4
2019-03-19 07:30;37,45
2019-03-19 07:45;18,75
2019-03-19 08:00;18
2019-03-19 08:15;24,95
2019-03-19 08:30;29,7
2019-03-19 08:45;31,4
2019-03-19 09:00;30,8
2019-03-19 09:15;35,9
2019-03-19 09:30;36,65
2019-03-19 09:45;34,55
2019-03-19 10:00;38,95
2019-03-19 10:15;46,75
2019-03-19 10:30;34,65
2019-03-19 10:45;45,35
2019-03-19 11:00;38
2019-03-19 11:15;39,5
2019-03-19 11:30;35,25
2019-03-19 11:45;42,15
2019-03-19 12:00;42,6
2019-03-19 12:15;41,6
2019-03-19 12:30;36,35
2019-03-19 12:45;43,8
2019-03-19 13:00;35,9
2019-03-19 13:15;42,35
2019-03-19 13:30;43,1
2019-03-19 13:45;44,3
2019-03-19 14:00;41,7
2019-03-19 14:15;45,7
2019-03-19 14:30;39
2019-03-19 14:45;47,55
2019-03-19 15:00;45,25
2019-03-19 15:15;43
2019-03-19 15:30;45,8
2019-03-19 15:45;40,5
2019-03-19 16:00;45,1
2019-03-19 16:15;38,6
2019-03-19 16:30;43,85
2019-03-19 16:45;41
2019-03-19 17:00;39,25
2019-03-19 17:15;44,15
2019-03-19 17:30;36,65
2019-03-19 17:45;41,95
2019-03-19 18:00;37,5
2019-03-19 18:15;33,8
2019-03-19 18:30;26,65
2019-03-19 18:45;26,1
2019-03-19 19:00;27,8
2019-03-19 19:15;28
2019-03-19 19:30;27,9
2019-03-19 19:45;27,1
2019-03-19 20:00;24,5
2019-03-19 20:15;20,95
2019-03-19 20:30;20,15
2019-03-19 20:45;21,1
2019-03-19 21:00;19,5
2019-03-19 21:15;19,25
2019-03-19 21:30;19,95
2019-03-19 21:45;16
2019-03-19 22:00;15,45
2019-03-19 22:15;9,05
2019-03-19 22:30;9,85
2019-03-19 22:45;11,2
2019-03-19 23:00;15,15
2019-03-19 23:15;13,35
2019-03-19 23:30;13,85
2019-03-19 23:45;14
2019-03-20 00:00;14,4
2019-03-20 00:15;10,6
2019-03-20 00:30;13,05
2019-03-20 00:45;12,2
2019-03-20 01:00;15,35
2019-03-20 01:15;14,6
2019-03-20 01:30;15,25
2019-03-20 01:45;15,8
2019-03-20 02:00;16
2019-03-20 02:15;15,85
2019-03-20 02:30;16,05
2019-03-20 02:45;16,4
2019-03-20 03:00;15,7
2019-03-20 03:15;13,75
2019-03-20 03:30;12,8
2019-03-20 03:45;13,8
2019-03-20 04:00;12,55
2019-03-20 04:15;11,65
2019-03-20 04:30;13,65
2019-03-20 04:45;15,15
2019-03-20 05:00;16,35
2019-03-20 05:15;15,65
2019-03-20 05:30;14,8
2019-03-20 05:45;12,4
2019-03-20 06:00;11,9
2019-03-20 06:15;11,4
2019-03-20 06:30;10,45
2019-03-20 06:45;9,2
2019-03-20 07:00;10,05
2019-03-20 07:15;8,6
2019-03-20 07:30;37,2
2019-03-20 07:45;13,2
2019-03-20 08:00;21,6
2019-03-20 08:15;16,4
2019-03-20 08:30;20,5
2019-03-20 08:45;23,2
2019-03-20 09:00;26,85
2019-03-20 09:15;25,95
2019-03-20 09:30;29,25
2019-03-20 09:45;27,6
2019-03-20 10:00;37,95
2019-03-20 10:15;37,25
2019-03-20 10:30;43,5
2019-03-20 10:45;34,65
2019-03-20 11:00;45,4
2019-03-20 11:15;41
2019-03-20 11:30;44,7
2019-03-20 11:45;44,8
2019-03-20 12:00;47,05
2019-03-20 12:15;49,9
2019-03-20 12:30;47,6
2019-03-20 12:45;49,25
2019-03-20 13:00;45
2019-03-20 13:15;45,75
2019-03-20 13:30;40,35
2019-03-20 13:45;44,85
2019-03-20 14:00;40,05
2019-03-20 14:15;46,45
2019-03-20 14:30;50,55
2019-03-20 14:45;55,8
2019-03-20 15:00;45,2
2019-03-20 15:15;44,1
2019-03-20 15:30;35,8
2019-03-20 15:45;33,3
2019-03-20 16:00;39,85
2019-03-20 16:15;34
2019-03-20 16:30;34,95
2019-03-20 16:45;33,4
2019-03-20 17:00;41,05
2019-03-20 17:15;36
2019-03-20 17:30;39
2019-03-20 17:45;29,35
2019-03-20 18:00;37,95
2019-03-20 18:15;37,25
2019-03-20 18:30;33,55
2019-03-20 18:45;30,95
2019-03-20 19:00;26,9
2019-03-20 19:15;26,5
2019-03-20 19:30;25,15
2019-03-20 19:45;23,05
2019-03-20 20:00;24,25
2019-03-20 20:15;23,25
2019-03-20 20:30;23,9
2019-03-20 20:45;22,95
2019-03-20 21:00;26,5
2019-03-20 21:15;28,4
2019-03-20 21:30;27,95
2019-03-20 21:45;22,45
2019-03-20 22:00;15,45
2019-03-20 22:15;13,35
2019-03-20 22:30;15,25
2019-03-20 22:45;16,4
2019-03-20 23:00;18,5
2019-03-20 23:15;17,3
2019-03-20 23:30;17,2
2019-03-20 23:45;18,8
2019-03-21 00:00;17,85
2019-03-21 00:15;8,55
2019-03-21 00:30;8,4
2019-03-21 00:45;7,95
2019-03-21 01:00;9
2019-03-21 01:15;9,95
2019-03-21 01:30;8,3
2019-03-21 01:45;8,4
2019-03-21 02:00;10
2019-03-21 02:15;9,9
2019-03-21 02:30;9,4
2019-03-21 02:45;11,25
2019-03-21 03:00;10,85
2019-03-21 03:15;12,05
2019-03-21 03:30;11,65
2019-03-21 03:45;13,1
2019-03-21 04:00;12,35
2019-03-21 04:15;10,7
2019-03-21 04:30;10,45
2019-03-21 04:45;12,85
2019-03-21 05:00;14,05
2019-03-21 05:15;10,65
2019-03-21 05:30;10,15
2019-03-21 05:45;10,8
2019-03-21 06:00;10,6
2019-03-21 06:15;12,7
2019-03-21 06:30;8,7
2019-03-21 06:45;8,15
2019-03-21 07:00;8,9
2019-03-21 07:15;7,85
2019-03-21 07:30;35,85
2019-03-21 07:45;15,65
2019-03-21 08:00;19,6
2019-03-21 08:15;15,7
2019-03-21 08:30;28,7
2019-03-21 08:45;33,5
2019-03-21 09:00;39,2
2019-03-21 09:15;41,95
2019-03-21 09:30;48,75
2019-03-21 09:45;42
2019-03-21 10:00;46,85
2019-03-21 10:15;48,9
2019-03-21 10:30;51,6
2019-03-21 10:45;48,55
2019-03-21 11:00;42,05
2019-03-21 11:15;47,65
2019-03-21 11:30;47,2
2019-03-21 11:45;48,8
2019-03-21 12:00;44,2
2019-03-21 12:15;54,2
2019-03-21 12:30;51,4
2019-03-21 12:45;52,35
2019-03-21 13:00;60,65
2019-03-21 13:15;52,2
2019-03-21 13:30;54,9
2019-03-21 13:45;49,05
2019-03-21 14:00;57,05
2019-03-21 14:15;51,35
2019-03-21 14:30;54,85
2019-03-21 14:45;50,85
2019-03-21 15:00;53,3
2019-03-21 15:15;50,35
2019-03-21 15:30;53,9
2019-03-21 15:45;51,2
2019-03-21 16:00;45,6
2019-03-21 16:15;47,5
2019-03-21 16:30;41,8
2019-03-21 16:45;40,2
2019-03-21 17:00;29,6
2019-03-21 17:15;30,5
2019-03-21 17:30;35,6
2019-03-21 17:45;34,55
2019-03-21 18:00;34,9
2019-03-21 18:15;28,6
2019-03-21 18:30;30,4
2019-03-21 18:45;24,5
2019-03-21 19:00;23,55
2019-03-21 19:15;25,15
2019-03-21 19:30;27,15
2019-03-21 19:45;22,75
2019-03-21 20:00;19,55
2019-03-21 20:15;16,25
2019-03-21 20:30;13,45
2019-03-21 20:45;10,55
2019-03-21 21:00;11,4
2019-03-21 21:15;13,15
2019-03-21 21:30;12,55
2019-03-21 21:45;11,7
2019-03-21 22:00;11
2019-03-21 22:15;12,25
2019-03-21 22:30;10,5
2019-03-21 22:45;10
2019-03-21 23:00;12,55
2019-03-21 23:15;11,35
2019-03-21 23:30;6,3
2019-03-21 23:45;4,55
2019-03-22 00:00;4,6
2019-03-22 00:15;4,5
2019-03-22 00:30;6,15
2019-03-22 00:45;7,35
2019-03-22 01:00;8,25
2019-03-22 01:15;9,4
2019-03-22 01:30;8,9
2019-03-22 01:45;10,3
2019-03-22 02:00;11,75
2019-03-22 02:15;12,6
2019-03-22 02:30;11,85
2019-03-22 02:45;8,95
2019-03-22 03:00;7,95
2019-03-22 03:15;8,15
2019-03-22 03:30;8,65
2019-03-22 03:45;8,25
2019-03-22 04:00;7,25
2019-03-22 04:15;6,85
2019-03-22 04:30;7,55
2019-03-22 04:45;6,7
2019-03-22 05:00;6,9
2019-03-22 05:15;7,9
2019-03-22 05:30;6,75
2019-03-22 05:45;5,15
2019-03-22 06:00;5,05
2019-03-22 06:15;5,95
2019-03-22 06:30;4,75
2019-03-22 06:45;4,3
2019-03-22 07:00;2,9
2019-03-22 07:15;5
2019-03-22 07:30;29,75
2019-03-22 07:45;10,6
2019-03-22 08:00;11,8
2019-03-22 08:15;10,3
2019-03-22 08:30;18,55
2019-03-22 08:45;20,05
2019-03-22 09:00;20,5
2019-03-22 09:15;23,75
2019-03-22 09:30;27,9
2019-03-22 09:45;30,35
2019-03-22 10:00;35,7
2019-03-22 10:15;37,95
2019-03-22 10:30;39,75
2019-03-22 10:45;40,3
2019-03-22 11:00;43,95
2019-03-22 11:15;39,95
2019-03-22 11:30;44,05
2019-03-22 11:45;46,9
2019-03-22 12:00;49,85
2019-03-22 12:15;8,6
2019-03-22 12:30;0
2019-03-22 12:45;0
2019-03-22 13:00;0
2019-03-22 13:15;0
2019-03-22 13:30;44,75
2019-03-22 13:45;33,25
2019-03-22 14:00;38,25
2019-03-22 14:15;36,95
2019-03-22 14:30;34,75
2019-03-22 14:45;35,4
2019-03-22 15:00;34,85
2019-03-22 15:15;39,8
2019-03-22 15:30;40,95
2019-03-22 15:45;43,75
2019-03-22 16:00;45,8
2019-03-22 16:15;29,75
2019-03-22 16:30;27,55
2019-03-22 16:45;23,2
2019-03-22 17:00;20,6
2019-03-22 17:15;19,65
2019-03-22 17:30;20,55
2019-03-22 17:45;21,4
2019-03-22 18:00;20,75
2019-03-22 18:15;16,6
2019-03-22 18:30;12,9
2019-03-22 18:45;12,7
2019-03-22 19:00;11,15
2019-03-22 19:15;9,7
2019-03-22 19:30;9,95
2019-03-22 19:45;6,85
2019-03-22 20:00;3,6
2019-03-22 20:15;4,4
2019-03-22 20:30;2,9
2019-03-22 20:45;1,9
2019-03-22 21:00;2
2019-03-22 21:15;3,35
2019-03-22 21:30;0
2019-03-22 21:45;0,05
2019-03-22 22:00;0,05
2019-03-22 22:15;0
2019-03-22 22:30;0
2019-03-22 22:45;0
2019-03-22 23:00;0,15
2019-03-22 23:15;0
2019-03-22 23:30;0,4
2019-03-22 23:45;0,25
2019-03-23 00:00;0
2019-03-23 00:15;0
2019-03-23 00:30;0
2019-03-23 00:45;0
2019-03-23 01:00;0
2019-03-23 01:15;0
2019-03-23 01:30;0
2019-03-23 01:45;0
2019-03-23 02:00;0
2019-03-23 02:15;0
2019-03-23 02:30;0
2019-03-23 02:45;0
2019-03-23 03:00;0
2019-03-23 03:15;0
2019-03-23 03:30;0
2019-03-23 03:45;0
2019-03-23 04:00;0
2019-03-23 04:15;0
2019-03-23 04:30;0
2019-03-23 04:45;0
2019-03-23 05:00;0
2019-03-23 05:15;0
2019-03-23 05:30;0
2019-03-23 05:45;0
2019-03-23 06:00;0
2019-03-23 06:15;0
2019-03-23 06:30;0
2019-03-23 06:45;0
2019-03-23 07:00;0
2019-03-23 07:15;0
2019-03-23 07:30;1,1
2019-03-23 07:45;0,7
2019-03-23 08:00;2,1
2019-03-23 08:15;2,6
2019-03-23 08:30;2,15
2019-03-23 08:45;3,7
2019-03-23 09:00;3,7
2019-03-23 09:15;3,25
2019-03-23 09:30;2,05
2019-03-23 09:45;3,95
2019-03-23 10:00;4,4
2019-03-23 10:15;6,05
2019-03-23 10:30;7,7
2019-03-23 10:45;3,55
2019-03-23 11:00;5,6
2019-03-23 11:15;6
2019-03-23 11:30;5,1
2019-03-23 11:45;6,05
2019-03-23 12:00;7,55
2019-03-23 12:15;7,05
2019-03-23 12:30;9,35
2019-03-23 12:45;8,15
2019-03-23 13:00;6,85
2019-03-23 13:15;5,25
2019-03-23 13:30;6,85
2019-03-23 13:45;9,65
2019-03-23 14:00;5,65
2019-03-23 14:15;5,25
2019-03-23 14:30;5,4
2019-03-23 14:45;6,3
2019-03-23 15:00;7,65
2019-03-23 15:15;8,65
2019-03-23 15:30;6,85
2019-03-23 15:45;7,1
2019-03-23 16:00;7,4
2019-03-23 16:15;7,8
2019-03-23 16:30;9,45
2019-03-23 16:45;8,3
2019-03-23 17:00;8,15
2019-03-23 17:15;8,85
2019-03-23 17:30;9,75
2019-03-23 17:45;12,65
2019-03-23 18:00;12,6
2019-03-23 18:15;12,5
2019-03-23 18:30;12,3
2019-03-23 18:45;17,65
2019-03-23 19:00;12,75
2019-03-23 19:15;12,9
2019-03-23 19:30;9
2019-03-23 19:45;9,65
2019-03-23 20:00;7,95
2019-03-23 20:15;8,05
2019-03-23 20:30;6,4
2019-03-23 20:45;7,2
2019-03-23 21:00;7,45
2019-03-23 21:15;6,8
2019-03-23 21:30;7,2
2019-03-23 21:45;3,2
2019-03-23 22:00;3,2
2019-03-23 22:15;3,45
2019-03-23 22:30;1,7
2019-03-23 22:45;3,55
2019-03-23 23:00;3,4
2019-03-23 23:15;0,95
2019-03-23 23:30;1,85
2019-03-23 23:45;0,25
2019-03-24 00:00;0
2019-03-24 00:15;0
2019-03-24 00:30;0
2019-03-24 00:45;0
2019-03-24 01:00;0
2019-03-24 01:15;0
2019-03-24 01:30;0
2019-03-24 01:45;0
2019-03-24 02:00;0
2019-03-24 02:15;0
2019-03-24 02:30;0
2019-03-24 02:45;0
2019-03-24 03:00;0
2019-03-24 03:15;0
2019-03-24 03:30;0
2019-03-24 03:45;0
2019-03-24 04:00;0
2019-03-24 04:15;0
2019-03-24 04:30;0
2019-03-24 04:45;0
2019-03-24 05:00;0
2019-03-24 05:15;0
2019-03-24 05:30;0
2019-03-24 05:45;0
2019-03-24 06:00;0
2019-03-24 06:15;0
2019-03-24 06:30;0
2019-03-24 06:45;0
2019-03-24 07:00;0
2019-03-24 07:15;0
2019-03-24 07:30;0
2019-03-24 07:45;0
2019-03-24 08:00;0
2019-03-24 08:15;0
2019-03-24 08:30;0
2019-03-24 08:45;0
2019-03-24 09:00;3,85
2019-03-24 09:15;3,4
2019-03-24 09:30;2,85
2019-03-24 09:45;1,4
2019-03-24 10:00;1,2
2019-03-24 10:15;0,1
2019-03-24 10:30;0,05
2019-03-24 10:45;0,65
2019-03-24 11:00;0,15
2019-03-24 11:15;0,35
2019-03-24 11:30;2,1
2019-03-24 11:45;1,35
2019-03-24 12:00;1,05
2019-03-24 12:15;0,75
2019-03-24 12:30;2,3
2019-03-24 12:45;3,3
2019-03-24 13:00;1,9
2019-03-24 13:15;0,25
2019-03-24 13:30;0,3
2019-03-24 13:45;0,8
2019-03-24 14:00;0,5
2019-03-24 14:15;2,3
2019-03-24 14:30;1,5
2019-03-24 14:45;0,45
2019-03-24 15:00;2,35
2019-03-24 15:15;2,95
2019-03-24 15:30;3,6
2019-03-24 15:45;2,2
2019-03-24 16:00;1,7
2019-03-24 16:15;3,2
2019-03-24 16:30;0,75
2019-03-24 16:45;0,35
2019-03-24 17:00;5,05
2019-03-24 17:15;4,75
2019-03-24 17:30;3,1
2019-03-24 17:45;3,3
2019-03-24 18:00;1,8
2019-03-24 18:15;1,05
2019-03-24 18:30;2,35
2019-03-24 18:45;1,55
2019-03-24 19:00;2,85
2019-03-24 19:15;5,8
2019-03-24 19:30;2,45
2019-03-24 19:45;1,15
2019-03-24 20:00;0,45
2019-03-24 20:15;0,3
2019-03-24 20:30;1,15
2019-03-24 20:45;0,85
2019-03-24 21:00;0,1
2019-03-24 21:15;0,15
2019-03-24 21:30;0,05
2019-03-24 21:45;0
2019-03-24 22:00;0,2
2019-03-24 22:15;0
2019-03-24 22:30;0
2019-03-24 22:45;0
2019-03-24 23:00;0,65
2019-03-24 23:15;0,1
2019-03-24 23:30;0,15
2019-03-24 23:45;0

